Regional Weather Roundup
Issued by NWS Newport/Morehead, NC

Home | Current Version | Previous Version | Text Only | Print | Product List | Glossary On
Versions: 1 2 3 4 5 6 7 8 9 10 11 12 13 14 15 16 17 18 19 20 21 22 23 24 25 26 27 28 29 30 31 32 33 34 35 36 37 38 39 40 41 42 43 44 45 46 47 48 49 50
000
ASUS42 KMHX 220022
RWRMHX
WEATHER ROUNDUP FOR EASTERN NORTH CAROLINA
NATIONAL WEATHER SERVICE NEWPORT/MOREHEAD CITY NC
800 PM EDT TUE OCT 21 2014

NOTE: "FAIR" INDICATES FEW OR NO CLOUDS BELOW 12,000 FEET
WITH NO SIGNIFICANT WEATHER AND/OR OBSTRUCTIONS TO VISIBILITY

NCZ015>017-031-032-045>047-102-103-220100-
NORTH COAST

CITY           SKY/WX    TMP DP  RH WIND       PRES   REMARKS
EDENTON        CLOUDY    61  55  82 CALM      29.86R
ELIZABETH CITY CLOUDY    63  51  65 CALM      29.84S
KITTY HAWK     MOCLDY    67  58  71 W5        29.85R
MANTEO         PTCLDY    66  62  85 S6        29.85S

$$

NCZ045>047-081-094-103-104-220100-
CENTRAL COAST

CITY           SKY/WX    TMP DP  RH WIND       PRES   REMARKS
FRISCO         CLEAR     69  60  73 W9        29.86R
SWANQUARTER      N/A     70 N/A N/A SW7       29.82S

$$

NCZ095-097-098-100-101-220100-
SOUTHERN COAST

CITY           SKY/WX    TMP DP  RH WIND       PRES   REMARKS
BEAUFORT       CLEAR     69  59  70 SW7       29.86R
CEDAR ISLAND     N/A     64 N/A N/A S5        29.91R
JACKSONVILLE   MOCLDY    66  59  78 SW5       29.86R
PINEY ISLAND   PTCLDY    67  58  72 SW7       29.86R
WILMINGTON     PTCLDY    66  57  72 SW5       29.87R


$$

NCZ011>013-027>030-043-044-078>080-089-090>093-098-220100-
COASTAL PLAIN

CITY           SKY/WX    TMP DP  RH WIND       PRES   REMARKS
AHOSKIE          N/A     58  55  88 CALM      29.86S
CLINTON        MOCLDY    62  57  83 CALM      29.87R
ELIZABETHTOWN  PTCLDY    63  55  76 CALM      29.87S
GOLDSBORO      CLOUDY    65  60  82 CALM      29.85R
GREENVILLE     MOCLDY    63  59  88 CALM      29.88S
HAVELOCK       PTCLDY    65  58  78 CALM      29.88R
KENANSVILLE    CLOUDY    61  56  82 CALM      29.87S
KINSTON        PTCLDY    61  57  88 CALM      29.87R
NEW BERN       MOCLDY    66  59  78 SW6       29.88R
RICHLANDS      MOCLDY    61  54  77 CALM      29.87S
ROCKY MOUNT    CLOUDY    62  57  83 CALM      29.86R
WASHINGTON     MOCLDY    60  55  81 CALM      29.87R
WHITEVILLE     MOCLDY    62  55  77 CALM      29.87S

$$

AMZ130-135-150-152-154-156-158-170-250-252-270-ANZ085-086-088-633-658-670-220100-
MARINE OBSERVATIONS

STATION/POSITION TIME  TEMP    WIND        PRES    WAVE   SWELL
                       AIR SEA DIR/SP/G            HT/PER HT/PER
                 (UTC) (F)     (DEG/KT/KT) (MB)    (FT/S) (FT/S)
CHESAPEAKE LIGHT 0000   68     130/  5/  5 1011.0
64 E VA BEACH    0000   70 69  210/  8/ 10 1010.1    3/ 6   2/ 6
DUCK             0000   68 69  190/  8/  9 1010.0
2 E DUCK         0000                        N/A     2/10
10 NE DUCK       0000      71                N/A     2/10
OREGON INLET     0000   69 69  170/  9/ 10 1010.8
13E OREGON INLT  0000      74                N/A     3/ 8   2/11
HATTERAS CG      0000   70 72  240/  7/  9 1011.3
DIAMOND BUOY     0000   72     260/ 16/ 19 1010.7    3/ 8   2/ 8
17 S OCRACOKE    2300          VRB 12/ 16  1010.8
CAPE LOOKOUT     0000   71     230/  6/  7 1011.2
BEAUFORT LAB     0000   71 71  240/  3/  6 1010.6
30 SE NEW RIVER  0000   73 76  250/ 12/ 14 1010.9    2/ 9   2/ 9
5 SE WRIGHTSVLE  0000   69 73  250/ 12/ 14   N/A
225 S CAPE HAT   NOT AVBL
41 SE CHARLESTON 0000   75 79  240/ 14/ 16 1011.9    2/ 9   2/ 9

$$



USA.gov is the U.S. government's official web portal to all federal, state and local government web resources and services.